Weather History for Aurora, OR

Change the Weather History Date:

Wednesday, October 2, 2013

  Actual Average Record
Temperature  
Mean Temperature 48 °F -  
Max Temperature 53 °F - 78 °F (2001)
Min Temperature 41 °F - 37 °F (2002)
Degree Days  
Heating Degree Days 18    
Month to date heating degree days 33  
Since 1 July heating degree days 152  
Cooling Degree Days 0    
Month to date cooling degree days 0  
Year to date cooling degree days 426  
Moisture  
Dew Point 45 °F    
Average Humidity 92    
Maximum Humidity 100    
Minimum Humidity 83    
Precipitation  
Precipitation 0.11 in - 0.23 in (2007)
Month to date precipitation 0.49  
Year to date precipitation 21.46  
Sea Level Pressure  
Sea Level Pressure 30.15 in    
Wind  
Wind Speed 2 mph (SSW)    
Max Wind Speed 9 mph    
Max Gust Speed 13 mph    
Visibility 8 miles    
Events Fog , Rain    
T = Trace of Precipitation, MM = Missing Value Source: NWS Daily Summary

Daily Weather History Graph

Daily Weather History Graph

Search for Another Location

Airport:

Trip Planner

Search our weather history database for the weather conditions in past years. The results will help you decide how hot, cold, wet, or windy it might be!

Date:

Astronomy

Oct. 02, 2013 Rise Set
Actual Time 7:10 AM PDT 6:48 PM PDT
Civil Twilight 6:41 AM PDT 7:18 PM PDT
Nautical Twilight 6:07 AM PDT 7:52 PM PDT
Astronomical Twilight 5:32 AM PDT 8:26 PM PDT
Moon 4:44 AM PDT (10/2) 5:31 PM PDT (10/2)
Length of Visible Light 12h 36m
Length of Day
11h 38m
Waning Crescent, 6% of the Moon is Illuminated
Oct 2
Waning Crescent
Oct 4
New
Oct 11
First Quarter
Oct 18
Full
Oct 26
Last Quarter

Hourly Weather History & Observations

Time (PDT) Temp. Windchill Dew Point Humidity Pressure Visibility Wind Dir Wind Speed Gust Speed Precip Events Conditions
12:08 AM 44.6 °F - 42.8 °F 93% 30.21 in 5.0 mi Calm Calm - N/A   Clear
12:20 AM 42.8 °F - 42.8 °F 100% 30.21 in 1.8 mi Calm Calm - N/A   Clear
12:31 AM 42.8 °F - 42.8 °F 100% 30.21 in 1.0 mi Calm Calm - N/A   Mist
12:39 AM 42.8 °F - 42.8 °F 100% 30.21 in 0.8 mi Calm Calm - N/A   Mist
12:53 AM 42.1 °F - 41.0 °F 96% 30.21 in 0.5 mi Calm Calm - N/A Fog Fog
12:59 AM 42.8 °F - 42.8 °F 100% 30.20 in 1.2 mi Calm Calm - N/A   Partly Cloudy
1:04 AM 42.8 °F - 41.0 °F 93% 30.20 in 3.0 mi Calm Calm - N/A   Clear
1:11 AM 42.8 °F - 41.0 °F 93% 30.20 in 1.8 mi Calm Calm - N/A   Clear
1:29 AM 42.8 °F - 41.0 °F 93% 30.20 in 2.0 mi Calm Calm - N/A   Clear
1:53 AM 42.1 °F - 42.1 °F 100% 30.20 in 9.0 mi Calm Calm - N/A   Clear
2:53 AM 42.1 °F - 42.1 °F 100% 30.19 in 10.0 mi Calm Calm - N/A   Clear
3:53 AM 42.1 °F - 42.1 °F 100% 30.17 in 10.0 mi Calm Calm - N/A   Clear
4:53 AM 43.0 °F - 42.1 °F 97% 30.15 in 10.0 mi Calm Calm - N/A   Clear
5:53 AM 42.1 °F - 42.1 °F 100% 30.15 in 8.0 mi Calm Calm - N/A   Partly Cloudy
6:53 AM 43.0 °F - 42.1 °F 97% 30.14 in 10.0 mi Calm Calm - N/A   Clear
7:53 AM 43.0 °F - 42.1 °F 97% 30.14 in 10.0 mi Calm Calm - N/A   Clear
8:53 AM 44.1 °F - 43.0 °F 96% 30.14 in 10.0 mi Calm Calm - N/A   Partly Cloudy
9:35 AM 46.4 °F - 44.6 °F 93% 30.14 in 10.0 mi Calm Calm - N/A   Mostly Cloudy
9:44 AM 46.4 °F 45.2 °F 44.6 °F 93% 30.14 in 10.0 mi South 3.5 mph - N/A   Overcast
9:53 AM 46.0 °F 44.8 °F 45.0 °F 96% 30.14 in 10.0 mi SSE 3.5 mph - N/A   Overcast
10:38 AM 48.2 °F - 46.4 °F 93% 30.14 in 10.0 mi Variable 3.5 mph - N/A   Overcast
10:48 AM 48.2 °F - 46.4 °F 93% 30.14 in 10.0 mi WSW 6.9 mph - N/A   Overcast
10:53 AM 48.0 °F - 45.0 °F 89% 30.14 in 10.0 mi SSW 4.6 mph - N/A   Overcast
11:01 AM 48.2 °F - 46.4 °F 93% 30.14 in 10.0 mi SSW 4.6 mph - N/A   Overcast
11:53 AM 50.0 °F - 45.0 °F 83% 30.14 in 10.0 mi SSW 8.1 mph - 0.00 in Rain Light Rain
12:53 PM 48.9 °F - 46.0 °F 90% 30.13 in 5.0 mi SSW 5.8 mph - 0.01 in Rain Light Rain
1:10 PM 48.2 °F - 46.4 °F 93% 30.13 in 5.0 mi SSW 5.8 mph - 0.01 in Rain Light Rain
1:53 PM 50.0 °F - 48.0 °F 93% 30.12 in 10.0 mi South 6.9 mph - 0.02 in Rain Light Rain
2:01 PM 50.0 °F - 46.4 °F 87% 30.12 in 10.0 mi SSW 6.9 mph - 0.00 in   Overcast
2:31 PM 50.0 °F - 48.2 °F 94% 30.11 in 10.0 mi South 6.9 mph - 0.00 in   Overcast
2:42 PM 50.0 °F - 46.4 °F 87% 30.11 in 10.0 mi SSW 4.6 mph - 0.00 in   Overcast
2:50 PM 51.8 °F - 46.4 °F 82% 30.11 in 10.0 mi South 6.9 mph - 0.00 in   Overcast
2:53 PM 51.1 °F - 46.9 °F 86% 30.11 in 10.0 mi South 5.8 mph - 0.00 in   Overcast
3:43 PM 53.6 °F - 46.4 °F 77% 30.10 in 10.0 mi South 8.1 mph - N/A   Overcast
3:53 PM 52.0 °F - 46.0 °F 80% 30.10 in 10.0 mi SSW 4.6 mph - N/A   Overcast
4:53 PM 52.0 °F - 48.0 °F 86% 30.11 in 8.0 mi Variable 3.5 mph - 0.00 in Rain Light Rain
5:53 PM 51.1 °F - 48.9 °F 92% 30.11 in 10.0 mi South 3.5 mph - 0.05 in   Mostly Cloudy
6:53 PM 51.1 °F - 48.9 °F 92% 30.12 in 10.0 mi Calm Calm - N/A   Mostly Cloudy
7:53 PM 50.0 °F - 46.9 °F 89% 30.14 in 7.0 mi Calm Calm - 0.01 in Rain Light Rain
8:53 PM 48.9 °F - 48.0 °F 97% 30.16 in 10.0 mi Calm Calm - 0.02 in   Overcast
9:53 PM 46.9 °F - 46.0 °F 97% 30.17 in 10.0 mi Calm Calm - N/A   Mostly Cloudy
10:53 PM 46.9 °F - 46.0 °F 97% 30.19 in 10.0 mi Calm Calm - N/A   Overcast
11:53 PM 46.9 °F - 45.0 °F 93% 30.21 in 10.0 mi Calm Calm - N/A   Mostly Cloudy